When you browse on this site, cookies collect data to enhance your experience and personalize the content and advertising you see.
Visit our Privacy Policy to learn more. By continuing to use the site, you agree to this use of cookies and data.
  • In Switzerland
  • List of Countries
  • For 7 days
  • Water Temperature
  • Weather Map
  • Weather Widgets
  • user-avatar
    Login

    Hourly Weather Seattle

    Today, 7 June, Sunday

    Time Temperature Precipitation Wind Pressure Humidity
    00:00 +8°C° 0 mm 3 mps 638 mmHg 84%
    01:00 +7°C° 0 mm 3 mps 638 mmHg 82%
    02:00 +6°C° 0 mm 4 mps 638 mmHg 81%
    03:00 +5°C° 0 mm 4 mps 638 mmHg 82%
    04:00 +4°C° 0 mm 4 mps 637 mmHg 84%
    05:00 +4°C° 0 mm 4 mps 637 mmHg 85%
    06:00 +5°C° 0 mm 4 mps 638 mmHg 77%
    07:00 +7°C° 0 mm 4 mps 638 mmHg 68%
    08:00 +10°C° 0 mm 4 mps 638 mmHg 60%
    09:00 +11°C° 0 mm 4 mps 639 mmHg 54%
    10:00 +13°C° 0 mm 3 mps 639 mmHg 47%
    11:00 +14°C° 0 mm 3 mps 639 mmHg 41%
    12:00 +16°C° 0 mm 3 mps 639 mmHg 40%
    13:00 +16°C° 0 mm 3 mps 639 mmHg 39%
    14:00 +17°C° 0 mm 2 mps 639 mmHg 38%
    15:00 +16°C° 0.3 mm 3 mps 639 mmHg 45%
    16:00 +14°C° 0.3 mm 3 mps 639 mmHg 52%
    17:00 +13°C° 0.3 mm 4 mps 638 mmHg 59%
    18:00 +11°C° 1 mm 3 mps 638 mmHg 65%
    19:00 +10°C° 1 mm 3 mps 638 mmHg 72%
    20:00 +8°C° 1 mm 2 mps 638 mmHg 78%
    21:00 +8°C° 1.7 mm 2 mps 639 mmHg 83%
    22:00 +7°C° 1.7 mm 3 mps 639 mmHg 87%
    23:00 +5°C° 1.7 mm 3 mps 639 mmHg 91%

    Tomorrow, 8 June, Monday

    Time Temperature Precipitation Wind Pressure Humidity
    00:00 +4°C° 4.2 mm 3 mps 639 mmHg 92%
    01:00 +5°C° 4.2 mm 2 mps 639 mmHg 93%
    02:00 +4°C° 4.2 mm 2 mps 639 mmHg 94%
    03:00 +4°C° 2 mm 2 mps 640 mmHg 94%
    04:00 +4°C° 2 mm 2 mps 640 mmHg 94%
    05:00 +3°C° 2 mm 3 mps 640 mmHg 93%
    06:00 +4°C° 0.5 mm 3 mps 641 mmHg 91%
    07:00 +5°C° 0.5 mm 3 mps 642 mmHg 89%
    08:00 +7°C° 0.5 mm 3 mps 642 mmHg 86%
    09:00 +7°C° 0 mm 4 mps 643 mmHg 78%
    10:00 +10°C° 0 mm 4 mps 644 mmHg 69%
    11:00 +10°C° 0 mm 5 mps 645 mmHg 61%
    12:00 +10°C° 0 mm 6 mps 645 mmHg 58%
    13:00 +10°C° 0 mm 8 mps 646 mmHg 56%
    14:00 +11°C° 0 mm 9 mps 646 mmHg 53%
    15:00 +9°C° 0 mm 10 mps 646 mmHg 53%
    16:00 +9°C° 0 mm 10 mps 646 mmHg 53%
    17:00 +9°C° 0 mm 10 mps 646 mmHg 53%
    18:00 +7°C° 0 mm 8 mps 646 mmHg 57%
    19:00 +7°C° 0 mm 6 mps 646 mmHg 60%
    20:00 +6°C° 0 mm 5 mps 646 mmHg 63%
    21:00 +5°C° 0 mm 5 mps 646 mmHg 65%
    22:00 +3°C° 0 mm 5 mps 646 mmHg 66%
    23:00 +2°C° 0 mm 5 mps 647 mmHg 68%

    Day after tomorrow, 9 June, Tuesday

    Time Temperature Precipitation Wind Pressure Humidity
    00:00 +2°C° 0 mm 5 mps 647 mmHg 67%
    01:00 +2°C° 0 mm 6 mps 647 mmHg 67%
    02:00 +2°C° 0 mm 6 mps 647 mmHg 66%
    03:00 +2°C° 0 mm 6 mps 647 mmHg 69%
    04:00 +2°C° 0 mm 5 mps 647 mmHg 71%
    05:00 +1°C° 0 mm 4 mps 647 mmHg 73%
    06:00 +3°C° 0 mm 5 mps 647 mmHg 67%
    07:00 +6°C° 0 mm 5 mps 648 mmHg 61%
    08:00 +8°C° 0 mm 5 mps 648 mmHg 55%
    09:00 +9°C° 0 mm 5 mps 648 mmHg 52%
    10:00 +12°C° 0 mm 5 mps 648 mmHg 48%
    11:00 +13°C° 0 mm 5 mps 649 mmHg 45%
    12:00 +13°C° 0 mm 5 mps 648 mmHg 44%
    13:00 +14°C° 0 mm 5 mps 648 mmHg 42%
    14:00 +15°C° 0 mm 6 mps 648 mmHg 41%
    15:00 +15°C° 0 mm 5 mps 648 mmHg 41%
    16:00 +14°C° 0 mm 5 mps 648 mmHg 41%
    17:00 +14°C° 0 mm 5 mps 647 mmHg 41%
    18:00 +12°C° 0 mm 4 mps 647 mmHg 48%
    19:00 +11°C° 0 mm 4 mps 647 mmHg 55%
    20:00 +10°C° 0 mm 3 mps 647 mmHg 63%
    21:00 +9°C° 0 mm 3 mps 647 mmHg 66%
    22:00 +7°C° 0 mm 4 mps 647 mmHg 70%
    23:00 +6°C° 0 mm 4 mps 647 mmHg 74%

    10 June, Wednesday

    Time Temperature Precipitation Wind Pressure Humidity
    00:00 +7°C° 0 mm 4 mps 647 mmHg 73%
    01:00 +7°C° 0 mm 5 mps 647 mmHg 72%
    02:00 +8°C° 0 mm 5 mps 647 mmHg 71%
    03:00 +7°C° 0 mm 6 mps 647 mmHg 71%
    04:00 +6°C° 0 mm 7 mps 647 mmHg 70%
    05:00 +6°C° 0 mm 8 mps 647 mmHg 70%
    06:00 +9°C° 0 mm 8 mps 648 mmHg 66%
    07:00 +10°C° 0 mm 9 mps 649 mmHg 62%
    08:00 +11°C° 0 mm 9 mps 649 mmHg 58%
    09:00 +12°C° 0 mm 8 mps 650 mmHg 55%
    10:00 +15°C° 0 mm 8 mps 650 mmHg 52%
    11:00 +16°C° 0 mm 8 mps 650 mmHg 48%
    12:00 +16°C° 0 mm 7 mps 650 mmHg 47%
    13:00 +17°C° 0 mm 7 mps 650 mmHg 46%
    14:00 +17°C° 0 mm 6 mps 651 mmHg 45%
    15:00 +17°C° 0 mm 6 mps 650 mmHg 45%
    16:00 +17°C° 0 mm 6 mps 650 mmHg 46%
    17:00 +17°C° 0 mm 6 mps 650 mmHg 47%
    18:00 +15°C° 0 mm 4 mps 650 mmHg 52%
    19:00 +14°C° 0 mm 3 mps 650 mmHg 57%
    20:00 +13°C° 0 mm 1 mps 649 mmHg 63%
    21:00 +12°C° 0 mm 1 mps 649 mmHg 67%
    22:00 +11°C° 0 mm 1 mps 649 mmHg 72%
    23:00 +8°C° 0 mm 2 mps 649 mmHg 77%

    11 June, Thursday

    Time Temperature Precipitation Wind Pressure Humidity
    00:00 +8°C° 0 mm 2 mps 650 mmHg 79%
    01:00 +7°C° 0 mm 2 mps 650 mmHg 81%
    02:00 +7°C° 0 mm 2 mps 650 mmHg 82%
    03:00 +7°C° 0 mm 2 mps 650 mmHg 82%
    04:00 +7°C° 0 mm 2 mps 650 mmHg 82%
    05:00 +7°C° 0 mm 2 mps 650 mmHg 81%
    06:00 +10°C° 0 mm 1 mps 651 mmHg 73%
    07:00 +12°C° 0 mm 1 mps 652 mmHg 65%
    08:00 +15°C° 0 mm 1 mps 652 mmHg 57%
    09:00 +16°C° 0 mm 1 mps 653 mmHg 52%
    10:00 +18°C° 0 mm 2 mps 653 mmHg 48%
    11:00 +19°C° 0 mm 2 mps 653 mmHg 43%
    12:00 +20°C° 0 mm 3 mps 653 mmHg 43%
    13:00 +21°C° 0 mm 3 mps 653 mmHg 42%
    14:00 +22°C° 0 mm 3 mps 653 mmHg 41%
    15:00 +22°C° 0 mm 4 mps 653 mmHg 43%
    16:00 +22°C° 0 mm 4 mps 653 mmHg 44%
    17:00 +22°C° 0 mm 4 mps 653 mmHg 46%
    18:00 +20°C° 0.1 mm 3 mps 652 mmHg 54%
    19:00 +18°C° 0.1 mm 3 mps 652 mmHg 61%
    20:00 +16°C° 0.1 mm 2 mps 652 mmHg 69%
    21:00 +15°C° 0 mm 2 mps 652 mmHg 71%
    22:00 +14°C° 0 mm 2 mps 652 mmHg 74%
    23:00 +13°C° 0 mm 2 mps 652 mmHg 77%

    12 June, Friday

    Time Temperature Precipitation Wind Pressure Humidity
    00:00 +12°C° 0 mm 1 mps 652 mmHg 79%
    01:00 +11°C° 0 mm 1 mps 651 mmHg 82%
    02:00 +11°C° 0 mm 1 mps 651 mmHg 85%
    03:00 +10°C° 0 mm 1 mps 651 mmHg 86%
    04:00 +9°C° 0 mm 0 mps 651 mmHg 86%
    05:00 +9°C° 0 mm 0 mps 651 mmHg 87%
    06:00 +11°C° 0 mm 0 mps 651 mmHg 81%
    07:00 +13°C° 0 mm 0 mps 651 mmHg 75%
    08:00 +16°C° 0 mm 1 mps 652 mmHg 69%
    09:00 +18°C° 0 mm 1 mps 651 mmHg 65%
    10:00 +19°C° 0 mm 2 mps 651 mmHg 61%
    11:00 +21°C° 0 mm 3 mps 651 mmHg 57%
    12:00 +22°C° 0 mm 3 mps 651 mmHg 54%
    13:00 +24°C° 0 mm 3 mps 650 mmHg 52%
    14:00 +25°C° 0 mm 3 mps 650 mmHg 50%
    15:00 +25°C° 0 mm 3 mps 649 mmHg 50%
    16:00 +25°C° 0 mm 3 mps 649 mmHg 51%
    17:00 +25°C° 0 mm 3 mps 648 mmHg 52%
    18:00 +24°C° 0 mm 3 mps 647 mmHg 59%
    19:00 +21°C° 0 mm 3 mps 647 mmHg 66%
    20:00 +19°C° 0 mm 3 mps 646 mmHg 73%
    21:00 +18°C° 0 mm 3 mps 646 mmHg 77%
    22:00 +17°C° 0 mm 2 mps 645 mmHg 80%
    23:00 +16°C° 0 mm 2 mps 645 mmHg 83%
    Show more